Home   Weather   Brno   Past weeks

Flag for Czech Republic Past Weather in Brno, Czech Republic — Yesterday and Last 2 Weeks

Now
43 °F

Overcast.


Feels Like: 40 °F
Forecast: 39 / 46 °F
Wind: 5 mph from Northwest

Location: Brno / Turany

Current Time: Apr 27, 2017 at 12:54:37 pm

Latest Report: Apr 27, 2017 at 12:00 pm


Visibility: 16 mi

Pressure: 29.98 "Hg

Humidity: 83%

Dew Point: 38 °F

Location of BrnoLocation

Past Weather in Brno — Graph

°F

Brno Temperature Yesterday

Maximum temperature yesterday: 51 °F (at 12:00 am)
Minimum temperature yesterday: 43 °F (at 11:00 pm)
Average temperature yesterday: 47 °F

High & Low Weather Summary for the Past Weeks

 TemperatureHumidityPressure
High61 °F (Apr 25, 3:00 pm)94% (Apr 27, 5:00 am)30.54 "Hg (Apr 27, 5:00 am)
Low29 °F (Apr 21, 3:00 am)35% (Apr 16, 5:00 pm)29.71 "Hg (Apr 25, 7:00 pm)
Average45 °F67%30.06 "Hg
* Reported Apr 12 11:00 am — Apr 27 11:00 am, Brno, Weather by CustomWeather, © 2017

Note: Actual official high and low records may vary slightly from our data, if they occured in-between our weather recording intervals... More about our weather records

Advertising

Brno Weather History for the Previous 24 Hours

Scroll right to see more
 ConditionsComfort  
Time TempWeatherWind HumidityBarometerVisibility
11:00 am
Thu, Apr 27
42 °FLight rain. Overcast.6 mph86%29.96 "Hg12 mi
10:00 am41 °FLight rain. Overcast.5 mph89%29.95 "Hg9 mi
9:00 am41 °FLight rain. Low clouds.3 mph90%29.93 "Hg7 mi
8:00 am41 °FRain. Low clouds.3 mph92%29.93 "Hg4 mi
7:00 am40 °FLight rain. Overcast.2 mph93%29.92 "Hg6 mi
6:00 am40 °FLight rain. Overcast.3 mph93%29.89 "Hg6 mi
5:00 am40 °FLight rain. Overcast.1 mph94%29.90 "Hg6 mi
4:00 am41 °FLight rain. Overcast.2 mph90%29.89 "Hg7 mi
3:00 am41 °FLight rain. Overcast.3 mph87%29.89 "Hg9 mi
2:00 am42 °FLight rain. Overcast.3 mph87%29.91 "Hg7 mi
1:00 am42 °FLight rain. Overcast.3 mph85%29.92 "Hg9 mi
12:00 am42 °FOvercast.5 mph85%29.93 "Hg9 mi
11:00 pm
Wed, Apr 26
43 °FLight rain. Overcast.2 mph87%29.92 "Hg9 mi
10:00 pm43 °FOvercast.3 mph83%29.91 "Hg9 mi
9:00 pm44 °FOvercast.2 mph86%29.90 "Hg9 mi
8:00 pm44 °FOvercast.5 mph81%29.88 "Hg7 mi
7:00 pm44 °FLight rain. Overcast.6 mph84%29.85 "Hg7 mi
6:00 pm45 °FLight rain. Overcast.6 mph82%29.85 "Hg11 mi
5:00 pm47 °FOvercast.6 mph77%29.82 "Hg9 mi
4:00 pm48 °FOvercast.7 mph77%29.82 "Hg11 mi
3:00 pm48 °FOvercast.8 mph76%29.81 "Hg11 mi
2:00 pm47 °FOvercast.7 mph80%29.82 "Hg12 mi
1:00 pm46 °FOvercast.7 mph79%29.81 "Hg12 mi
12:00 pm46 °FOvercast.7 mph81%29.80 "Hg9 mi
Weather by CustomWeather, © 2017

See weather overviewHow to use our weather pages